Welcome to mirrors.dotsrc.org

All our mirrors of open source software are available via http, https and ftp. More information about our mirrors including statistics and contact information is available on our mirror info pages.

For information about dotsrc.org and our other services please go to our website.

Index of /pub/ubuntu/pool/universe/k/

File Name  ↓ File Size  ↓ Date  ↓ 
Parent directory/--
ko.tex-extra-hlfont/-2007-11-09 19:03:46
ko.tex-unfonts/-2012-05-02 03:34:28
kedpm/-2012-12-01 05:33:51
kde-artwork-active/-2013-09-20 18:22:41
kayali/-2014-01-26 22:28:25
kingston-update-notifier/-2014-02-19 03:28:51
kosd/-2015-04-26 18:03:16
keepnote/-2015-04-27 15:59:35
kubuntu-patched-l10n/-2015-04-28 18:02:34
key-mon/-2015-04-28 18:02:40
kanla/-2015-04-28 18:02:53
klone/-2015-04-30 13:20:29
kde-l10n-tg/-2015-05-03 08:25:58
kde-l10n-th/-2015-05-03 08:25:58
kde-l10n-vi/-2015-05-03 08:25:58
kyototycoon/-2015-12-04 16:07:43
kcm-qt-graphicssystem/-2015-12-05 01:02:13
kdesudo/-2015-12-05 01:02:14
kpartsplugin/-2015-12-05 01:02:23
kdnssd/-2015-12-05 18:15:41
kscope/-2015-12-12 10:44:31
kwallet/-2015-12-13 18:14:27
konsole4/-2015-12-24 09:05:02
kopete-message-indicator/-2016-01-15 13:04:02
kte-collaborative/-2016-01-16 06:21:17
kimchi/-2016-01-17 23:14:14
kabikaboo/-2016-03-10 12:27:48
kon2/-2016-10-31 18:28:58
kde-l10n-si/-2016-10-31 18:28:59
kaa-imlib2/-2016-11-01 01:04:37
kwin-style-dekorator/-2016-11-01 01:14:45
kopete-plugin-thinklight/-2016-11-01 01:14:46
kiki/-2016-11-01 01:14:49
kitsune/-2016-11-01 01:14:49
kdm-gdmcompat/-2016-11-01 01:14:54
kde-style-skulpture/-2016-11-01 01:14:58
kde-style-polyester/-2016-11-01 01:14:58
kalternatives/-2016-11-01 01:14:59
kaa-base/-2016-11-01 08:04:23
kaa-metadata/-2016-11-01 08:04:23
kwwidgets/-2016-11-01 08:15:32
ksplice/-2016-11-01 08:15:39
kolabadmin/-2016-11-01 08:15:40
kio-ftps/-2016-11-01 08:15:43
kepas/-2016-11-01 08:15:43
kiconedit/-2016-11-01 08:15:43
kgmailnotifier/-2016-11-01 08:15:43
kgrab/-2016-11-01 08:15:43
kftpgrabber/-2016-11-01 08:15:43
kcoloredit/-2016-11-01 08:15:44
kde-service-menu-fuseiso/-2016-11-01 08:15:44
kde-thumbnailer-openoffice/-2016-11-01 08:15:44
katoob/-2016-11-01 08:15:45
knowledgeroot/-2016-11-01 13:24:10
kopete-cryptography/-2016-11-02 07:23:17
kdesrc-build/-2016-11-02 12:35:09
kwin-style-crystal/-2016-11-03 13:08:56
kcometen4/-2016-11-03 13:09:02
ktux/-2016-11-03 19:02:45
kde-workspace/-2016-11-04 01:18:51
kdevelop-php-docs/-2017-02-21 00:19:32
kstars-data-extra-tycho2/-2017-02-24 16:16:46
kubuntu-web-shortcuts/-2017-03-05 18:18:49
kimwitu++/-2017-04-06 06:44:18
klibc/-2017-06-28 18:14:48
ksnapshot/-2018-01-19 09:26:36
knemo/-2018-01-19 09:26:39
kio-mtp/-2018-01-19 09:26:41
khronos-opengl-man4/-2018-01-19 09:26:43
kde-style-qtcurve/-2018-01-19 09:26:49
kde-wallpapers/-2018-01-19 09:26:49
kcm-touchpad/-2018-01-19 09:26:51
kde-base-artwork/-2018-01-19 09:26:51
kaya/-2018-01-19 09:26:52
kaptain/-2018-01-19 09:26:52
kytea/-2018-01-22 08:50:36
kumofs/-2018-01-22 08:50:38
korundum/-2018-01-22 08:50:40
kmess/-2018-01-22 08:50:42
kmer-tools/-2018-01-22 08:50:42
kgamma/-2018-01-22 08:50:44
kdev-python/-2018-01-22 08:50:48
kdesdk-strigi-analyzers/-2018-01-22 08:50:48
kdenetwork-strigi-analyzers/-2018-01-22 08:50:49
kdegraphics-strigi-analyzer/-2018-01-22 08:50:52
kdeconnect-plasma/-2018-01-22 08:50:52
kcm-grub2/-2018-01-22 08:50:54
kryo-serializers/-2018-01-23 09:06:42
komparator/-2018-01-23 09:06:51
kdepim4/-2018-01-23 09:06:53
knutclient/-2018-01-23 09:06:53
kmidimon/-2018-01-23 09:06:54
kimwitu/-2018-01-23 09:07:01
kffmpegthumbnailer/-2018-01-23 09:07:10
kadu-mime-tex/-2018-01-23 09:07:43
kontrolpack/-2018-02-06 14:04:52
kamerka/-2018-04-04 09:00:34
kfritz/-2018-04-04 11:25:43
kmldonkey/-2018-04-04 11:25:44
kgraphviewer/-2018-04-04 11:25:51
kredentials/-2018-04-04 21:24:06
kprinter4/-2018-04-04 21:24:10
killer/-2018-06-08 23:18:18
kubuntu-docs/-2018-06-14 00:14:57
kdbg/-2018-06-22 15:13:14
kde-baseapps/-2018-06-22 15:13:14
kdepim/-2018-06-22 15:13:23
kernel-handbook/-2018-07-25 11:18:16
kubernetes/-2018-09-05 19:53:18
kterm/-2018-10-10 00:20:24
kubetail/-2019-01-18 18:39:14
kanif/-2019-07-18 23:13:39
krecipes/-2019-08-21 00:39:39
kdepimlibs/-2019-08-29 00:17:44
kactivities/-2019-08-29 00:17:44
kqoauth/-2019-09-04 18:59:50
krank/-2019-10-25 22:37:58
ktap/-2019-11-22 12:13:28
kid/-2019-12-17 13:15:55
kernel-package/-2019-12-26 05:18:38
kimwitu-doc/-2020-01-03 00:24:42
kup/-2020-01-31 23:45:33
kgb/-2020-03-22 20:30:05
ketchup/-2020-03-27 18:33:15
keylaunch/-2020-04-02 18:09:05
kerneltop/-2020-04-02 18:09:05
kanjipad/-2020-04-02 18:09:12
kbdd/-2020-04-03 06:13:45
keytouch-editor/-2020-04-03 06:13:51
kanatest/-2020-04-03 08:34:38
kdc2tiff/-2020-04-03 08:34:43
ksh93/-2020-04-03 10:43:29
kluppe/-2020-04-04 15:08:34
keyboardcast/-2020-04-05 00:13:27
kinput2/-2020-04-05 19:18:30
kde-config-whoopsie/-2020-04-05 22:08:22
komi/-2020-04-06 01:08:25
kubuntu-debug-installer/-2020-04-07 06:01:03
kubuntu-driver-manager/-2020-04-07 18:33:24
keras-applications/-2020-04-27 21:14:02
keras-preprocessing/-2020-04-27 21:14:02
knitpy/-2020-04-27 21:14:10
kcheckers/-2020-04-28 15:24:00
kdocker/-2020-04-28 15:24:01
keychain/-2020-05-07 05:28:30
kwstyle/-2020-05-22 05:23:29
kball/-2020-05-31 06:38:56
kuser/-2020-07-10 21:52:13
kvmtool/-2020-07-10 21:52:13
kvpm/-2020-07-10 21:52:13
kscd/-2020-07-10 21:52:13
kshutdown/-2020-07-10 21:52:13
ksaneplugin/-2020-07-10 21:52:13
kppp/-2020-07-10 21:52:13
klick/-2020-07-10 21:52:14
kirigami/-2020-07-10 21:52:14
klinkstatus/-2020-07-10 21:52:14
klein/-2020-07-10 21:52:14
kfilereplace/-2020-07-10 21:52:15
kdevplatform/-2020-07-10 21:52:16
kdewebdev/-2020-07-10 21:52:16
kate4/-2020-07-10 21:52:16
kdeartwork/-2020-07-10 21:52:16
kde4pimlibs/-2020-07-10 21:52:16
kashmir/-2020-07-10 21:52:16
kaccessible/-2020-07-10 21:52:16
kremotecontrol/-2020-07-10 21:52:16
keras/-2020-07-14 00:14:09
kvpnc/-2020-07-14 14:44:37
kover/-2020-07-14 14:44:37
kradio4/-2020-07-14 14:44:37
kfilemetadata/-2020-07-14 14:44:38
kde-l10n-lt/-2020-07-14 14:44:39
kde-l10n-km/-2020-07-14 14:44:39
kde-l10n-ar/-2020-07-14 14:44:39
kde-l10n-fa/-2020-07-14 14:44:39
kde-l10n-he/-2020-07-14 14:44:39
kde-l10n-cs/-2020-07-14 14:44:39
kde-l10n-ia/-2020-07-14 14:44:39
kde-l10n-nl/-2020-07-14 14:44:39
kde-runtime/-2020-07-14 14:44:39
kde-l10n-fr/-2020-07-14 14:44:39
kde-l10n-nds/-2020-07-14 14:44:39
kde-l10n-bg/-2020-07-14 14:44:39
kde-l10n-bs/-2020-07-14 14:44:39
kde-l10n-et/-2020-07-14 14:44:39
kde-l10n-pa/-2020-07-14 14:44:39
kde-l10n-hr/-2020-07-14 14:44:39
kde-l10n-ga/-2020-07-14 14:44:39
kde-l10n-nb/-2020-07-14 14:44:39
kde-l10n-ug/-2020-07-14 14:44:39
kde4libs/-2020-07-14 14:44:39
kde-l10n-gl/-2020-07-14 14:44:39
karlyriceditor/-2020-07-14 14:44:39
kde-l10n-hu/-2020-07-14 14:44:39
kde-l10n-es/-2020-07-14 14:44:39
kde-l10n-wa/-2020-07-14 14:44:39
kde-l10n-pl/-2020-07-14 14:44:39
kde-l10n-hi/-2020-07-14 14:44:39
kde-l10n-sr/-2020-07-14 14:44:39
kde-l10n-sl/-2020-07-14 14:44:39
kde-l10n-eo/-2020-07-14 14:44:39
kde-l10n-kk/-2020-07-14 14:44:39
kde-l10n-it/-2020-07-14 14:44:39
kde-l10n-ro/-2020-07-14 14:44:39
kde-l10n-ca/-2020-07-14 14:44:39
kde-l10n-da/-2020-07-14 14:44:39
kde-l10n-is/-2020-07-14 14:44:39
kde-l10n-sk/-2020-07-14 14:44:39
kde-l10n-tr/-2020-07-14 14:44:39
kde-l10n-ast/-2020-07-14 14:44:39
kde-l10n-zhcn/-2020-07-14 14:44:39
kde-l10n-el/-2020-07-14 14:44:39
kde-l10n-uk/-2020-07-14 14:44:39
kde-l10n-nn/-2020-07-14 14:44:39
kde-l10n-mr/-2020-07-14 14:44:39
kde-l10n-ja/-2020-07-14 14:44:39
kde-l10n-de/-2020-07-14 14:44:39
kde-l10n-id/-2020-07-14 14:44:39
kde-l10n-zhtw/-2020-07-14 14:44:39
kde-l10n-ru/-2020-07-14 14:44:39
kde-l10n-ko/-2020-07-14 14:44:39
kde-l10n-engb/-2020-07-14 14:44:39
kde-l10n-pt/-2020-07-14 14:44:39
kde-l10n-lv/-2020-07-14 14:44:39
kde-l10n-eu/-2020-07-14 14:44:39
kde-l10n-ca-valencia/-2020-07-14 14:44:39
kde-l10n-sv/-2020-07-14 14:44:39
kde-l10n-fi/-2020-07-14 14:44:39
kde-l10n-ptbr/-2020-07-14 14:44:39
kombu/-2020-07-14 18:16:44
kproperty/-2020-07-23 11:58:54
kafs-client/-2020-08-10 12:14:40
kstore/-2020-08-12 19:54:11
ksmtuned/-2020-08-19 23:59:36
kupfer/-2020-10-28 22:39:25
kuserfeedback/-2020-10-29 17:10:00
kwalify/-2020-11-10 11:28:48
ktechlab/-2020-11-12 06:15:51
kdsoap/-2020-11-13 00:18:40
kpeoplevcard/-2020-11-16 00:14:27
kreport/-2020-11-28 06:15:12
keybinder/-2020-12-13 18:05:33
keybinder-3.0/-2020-12-13 18:05:34
kcc/-2020-12-20 11:39:39
kel-agent/-2020-12-27 00:17:34
konwert/-2020-12-28 00:21:20
kxml2/-2020-12-28 05:24:58
knopflerfish-osgi/-2020-12-28 17:50:13
kxl/-2020-12-29 23:34:32
kytos-sphinx-theme/-2020-12-29 23:34:40
kylin-greeter/-2020-12-29 23:34:40
kytos-utils/-2020-12-29 23:34:40
kuttypy/-2020-12-29 23:34:40
kubuntu-notification-helper/-2020-12-29 23:34:40
kopano-webapp/-2020-12-29 23:34:41
klavaro/-2020-12-29 23:34:41
keysync/-2020-12-29 23:34:41
kcm-fcitx/-2020-12-29 23:34:41
kraptor/-2020-12-29 23:34:41
keepassx/-2020-12-29 23:34:41
knowthelist/-2020-12-29 23:34:41
kido/-2020-12-29 23:34:41
kamcli/-2020-12-29 23:34:41
keyringer/-2020-12-29 23:34:41
khmerconverter/-2020-12-29 23:34:41
ktp-legacy-presence-applet/-2020-12-29 23:34:41
kronosnet/-2020-12-29 23:34:41
koji/-2020-12-29 23:34:41
krb5-auth-dialog/-2020-12-29 23:34:41
kbuild/-2020-12-29 23:34:41
klystrack/-2020-12-29 23:34:41
kismet/-2020-12-29 23:34:41
koules/-2020-12-29 23:34:41
kiwi/-2020-12-29 23:34:41
khronos-api/-2020-12-29 23:34:41
kiki-the-nano-bot/-2020-12-29 23:34:41
kmodpy/-2020-12-29 23:34:41
kildclient/-2020-12-29 23:34:41
kodiplatform/-2020-12-29 23:34:41
kickpass/-2020-12-29 23:34:41
knocker/-2020-12-29 23:34:41
kitchen/-2020-12-29 23:34:41
krusader/-2020-12-29 23:34:41
kmplayer/-2020-12-29 23:34:41
kim-api/-2020-12-29 23:34:41
kde-config-systemd/-2020-12-29 23:34:41
kelbt/-2020-12-29 23:34:41
kcov/-2020-12-29 23:34:41
kobodeluxe/-2020-12-29 23:34:41
kadu/-2020-12-29 23:34:42
kafkacat/-2020-12-29 23:34:42
k3d/-2020-12-29 23:34:42
klatexformula/-2021-01-01 12:14:14
kpcli/-2021-01-02 05:31:48
kakasi/-2021-01-03 18:04:57
keepass2-plugin-keepasshttp/-2021-01-03 23:43:25
kmscube/-2021-01-04 00:28:49
kio-gopher/-2021-01-04 00:28:53
konfont/-2021-01-04 23:40:58
keyboards-rg/-2021-01-05 17:41:00
kindleclip/-2021-01-06 05:40:42
kanboard-cli/-2021-01-07 00:26:16
kephra/-2021-01-07 00:26:18
kdgcommons-java/-2021-01-07 23:53:35
kookbook/-2021-01-08 19:04:46
kmfl-keyboards-mywin/-2021-01-09 23:42:08
ketm/-2021-01-10 06:20:25
khronos-opencl-man/-2021-01-14 23:29:34
kanyremote/-2021-01-16 06:17:51
keynav/-2021-01-18 05:53:47
kile/-2021-01-20 19:14:38
ktimetracker/-2021-01-23 00:15:28
key-chord-el/-2021-01-25 17:44:34
kwalletcli/-2021-01-25 23:44:11
kitchensink-clojure/-2021-01-26 06:15:00
kubecolor/-2021-01-26 10:39:49
kthresher/-2021-02-05 18:14:00
kylin-video/-2021-02-06 00:17:03
krename/-2021-02-11 00:16:17
kboot-utils/-2021-02-18 06:15:27
kxstitch/-2021-02-25 12:19:08
kubuntu-wallpapers/-2021-03-01 00:17:01
kchmviewer/-2021-03-09 17:29:03
kongress/-2021-03-31 00:14:38
kanjidic/-2021-04-29 14:30:10
kallisto/-2021-04-29 14:32:45
katarakt/-2021-04-29 14:32:53
kpatch/-2021-05-11 14:14:24
kaidan/-2021-06-01 12:58:42
klaus/-2021-07-13 06:14:50
kuvert/-2021-08-05 17:39:03
kylin-nm/-2021-08-18 04:33:43
kylin-display-switch/-2021-08-19 11:38:51
kaffeine/-2021-08-22 14:38:50
konclude/-2021-09-06 22:13:52
kio-fuse/-2021-09-11 10:39:48
kjots/-2021-09-11 10:54:09
kexi/-2021-09-11 12:49:08
kerneloops/-2021-10-08 07:29:29
knowl.js/-2021-10-19 02:01:17
kaptive/-2021-10-19 09:24:04
kazam/-2021-10-19 09:44:11
king/-2021-10-19 13:39:24
key-mapper/-2021-10-19 15:51:52
kasumi/-2021-10-20 16:48:49
king-probe/-2021-10-21 04:49:24
klustakwik/-2021-10-21 04:58:54
kino/-2021-10-21 04:58:54
kissfft/-2021-10-21 04:58:54
kleborate/-2021-10-21 04:58:55
kraken/-2021-10-21 05:19:03
kraken2/-2021-10-21 05:19:06
krb5-sync/-2021-10-21 05:19:07
kstart/-2021-10-21 05:19:07
ktikz/-2021-10-21 05:19:09
kyotocabinet/-2021-10-21 05:19:10
kphotoalbum/-2021-10-21 05:29:25
kanshi/-2021-10-21 11:54:11
kakoune/-2021-10-21 11:54:11
kali/-2021-10-21 11:54:11
kdb/-2021-10-21 13:35:26
kdrill/-2021-10-21 17:04:06
kmetronome/-2021-10-21 17:40:04
kdesvn/-2021-10-22 14:18:48
kdevelop-pg-qt/-2021-10-24 12:09:16
keurocalc/-2021-10-28 12:19:32
kanjidraw/-2021-11-09 12:16:28
karabo-bridge/-2021-11-18 12:15:27
kxd/-2021-11-20 23:43:52
ksnip/-2021-11-26 12:15:02
kyua/-2021-11-28 00:08:45
khard/-2021-12-02 12:17:17
kannel/-2021-12-03 14:45:47
keyman-config/-2021-12-04 00:15:17
kmflcomp/-2021-12-04 00:15:17
keyman-keyboardprocessor/-2021-12-04 00:15:17
kylin-scanner/-2021-12-08 01:54:59
kodi-audiodecoder-fluidsynth/-2021-12-08 12:16:06
kotlin/-2021-12-08 19:23:59
kannel-sqlbox/-2021-12-09 02:15:16
kgx/-2021-12-14 17:39:36
kodi-visualization-shadertoy/-2021-12-15 12:17:44
ksh93u+m/-2021-12-19 18:15:02
knack/-2021-12-23 02:57:30
kblog/-2021-12-23 02:58:01
kcolorpicker/-2021-12-23 02:58:01
kazocsaba-imageviewer/-2021-12-23 02:58:01
kdiagram/-2021-12-23 02:58:01
kissplice/-2021-12-23 02:58:20
kmc/-2021-12-23 02:58:20
kst/-2021-12-23 02:58:20
kivy/-2021-12-23 02:58:20
knockd/-2021-12-23 02:58:20
kiwisolver/-2021-12-23 02:58:20
kgb-bot/-2021-12-23 02:58:20
ksysguard/-2021-12-23 02:58:20
khronos-opencl-clhpp/-2021-12-23 02:58:20
kubuntu-settings/-2021-12-23 02:58:20
krop/-2021-12-23 02:58:20
kiwix-tools/-2021-12-23 02:58:20
kup-backup/-2021-12-23 02:58:20
kimageannotator/-2021-12-23 02:58:20
krb5/-2021-12-23 02:58:20
kmymoney/-2021-12-23 02:58:20
knockpy/-2021-12-23 02:58:20
kraft/-2021-12-23 02:58:20
kid3/-2021-12-23 02:58:20
kstars/-2021-12-23 02:58:20
kwartz-client/-2021-12-23 02:58:20
ksh/-2021-12-23 02:58:20
krb5-strength/-2021-12-23 02:58:20
khmer/-2021-12-23 02:58:20
kma/-2021-12-23 02:58:20
kiwix/-2021-12-23 02:58:20
kineticstools/-2021-12-23 02:58:20
kworkflow/-2021-12-23 02:58:20
kernsmooth/-2021-12-23 02:58:21
keyrings.alt/-2021-12-23 02:58:21
keystone-tempest-plugin/-2021-12-23 02:58:21
keepass2/-2021-12-23 02:58:21
kexec-tools/-2021-12-23 02:58:21
kcptun/-2021-12-23 02:58:21
k2pdfopt/-2021-12-23 02:58:21
kas/-2021-12-23 02:58:21
kdiff3/-2021-12-23 02:58:21
kf5-kdepim-apps-libs/-2021-12-23 02:58:21
kcollectd/-2021-12-23 02:58:21
keepassxc/-2021-12-23 02:58:21
keepassxc-browser/-2021-12-23 02:58:21
kbibtex/-2021-12-23 02:58:21
kconfig-frontends/-2021-12-23 02:58:21
kalign/-2021-12-23 02:58:21
kylin-burner/-2021-12-23 02:58:33
kmod/-2021-12-23 06:20:50
kunststoff/-2021-12-23 11:23:54
kronometer/-2021-12-23 18:28:49
kbd/-2021-12-23 20:29:04
kwin-effect-xrdesktop/-2021-12-23 20:29:04
knxd/-2021-12-24 14:29:00
keymapper/-2021-12-26 05:29:15
knews/-2021-12-26 11:48:57
kazoo/-2021-12-28 23:43:59
kernelshark/-2021-12-31 06:18:22
kore/-2021-12-31 12:18:04
kicad-symbols/-2022-01-04 06:20:19
kicad-templates/-2022-01-04 06:20:19
kicad-packages3d/-2022-01-04 12:19:14
k4dirstat/-2022-01-04 12:19:14
khal/-2022-01-05 12:23:09
komposter/-2022-01-06 00:22:19
knot-resolver/-2022-01-07 06:21:58
kfloppy/-2022-01-07 18:22:23
kio-extras/-2022-01-07 18:22:23
kturtle/-2022-01-07 18:22:23
knights/-2022-01-07 18:22:23
kcalc/-2022-01-07 18:22:23
ksudoku/-2022-01-07 18:22:23
kmix/-2022-01-07 18:22:23
kmime/-2022-01-07 18:22:23
kidentitymanagement/-2022-01-07 18:22:23
keditbookmarks/-2022-01-07 18:22:23
kpmcore/-2022-01-07 18:22:23
kamera/-2022-01-07 18:22:23
kde-dev-scripts/-2022-01-07 18:22:23
kmplot/-2022-01-07 18:22:23
kamoso/-2022-01-07 18:22:23
katomic/-2022-01-07 18:22:23
kdeedu-data/-2022-01-07 18:22:23
konqueror/-2022-01-07 18:22:23
kwave/-2022-01-07 18:22:23
ktimer/-2022-01-07 18:22:23
kdegraphics-mobipocket/-2022-01-07 18:22:23
kaccounts-integration/-2022-01-07 18:22:23
kdeconnect/-2022-01-07 18:22:23
kdenetwork-filesharing/-2022-01-07 18:22:23
klines/-2022-01-07 18:22:23
kshisen/-2022-01-07 18:22:23
krfb/-2022-01-07 18:22:23
kdiamond/-2022-01-07 18:22:23
kipi-plugins/-2022-01-07 18:22:23
kcharselect/-2022-01-07 18:22:23
ksquares/-2022-01-07 18:22:23
kbackup/-2022-01-07 18:22:23
kde-dev-utils/-2022-01-07 18:22:23
kfourinline/-2022-01-07 18:22:23
kcron/-2022-01-07 18:22:23
ktp-text-ui/-2022-01-07 18:22:23
kgoldrunner/-2022-01-07 18:22:23
kompare/-2022-01-07 18:22:23
kdesdk-thumbnailers/-2022-01-07 18:22:23
ktuberling/-2022-01-07 18:22:23
krdc/-2022-01-07 18:22:23
kitinerary/-2022-01-07 18:22:23
kate/-2022-01-07 18:22:23
kmines/-2022-01-07 18:22:23
kpkpass/-2022-01-07 18:22:23
kmouth/-2022-01-07 18:22:23
knavalbattle/-2022-01-07 18:22:23
kwordquiz/-2022-01-07 18:22:23
kdegraphics-thumbnailers/-2022-01-07 18:22:23
kollision/-2022-01-07 18:22:23
kbreakout/-2022-01-07 18:22:23
kbounce/-2022-01-07 18:22:23
kcolorchooser/-2022-01-07 18:22:23
kalzium/-2022-01-07 18:22:23
kruler/-2022-01-07 18:22:23
klettres/-2022-01-07 18:22:23
kjumpingcube/-2022-01-07 18:22:23
kio-gdrive/-2022-01-07 18:22:23
kreversi/-2022-01-07 18:22:23
kspaceduel/-2022-01-07 18:22:23
ksystemlog/-2022-01-07 18:22:23
ksirk/-2022-01-07 18:22:23
kfind/-2022-01-07 18:22:23
kde-spectacle/-2022-01-07 18:22:23
kqtquickcharts/-2022-01-07 18:22:23
killbots/-2022-01-07 18:22:23
kteatime/-2022-01-07 18:22:23
kanagram/-2022-01-07 18:22:23
kapptemplate/-2022-01-07 18:22:23
kapman/-2022-01-07 18:22:23
kdf/-2022-01-07 18:22:23
kmahjongg/-2022-01-07 18:22:23
khangman/-2022-01-07 18:22:23
kblackbox/-2022-01-07 18:22:23
kmag/-2022-01-07 18:22:23
kalgebra/-2022-01-07 18:22:23
kdesdk-kioslaves/-2022-01-07 18:22:23
kmousetool/-2022-01-07 18:22:23
knetwalk/-2022-01-07 18:22:23
kiriki/-2022-01-07 18:22:23
kiten/-2022-01-07 18:22:23
kontrast/-2022-01-07 18:22:23
kajongg/-2022-01-07 18:22:23
ktouch/-2022-01-07 18:22:23
khelpcenter/-2022-01-07 18:22:23
kgeography/-2022-01-07 18:22:23
kmbox/-2022-01-07 18:22:23
kigo/-2022-01-07 18:22:23
konquest/-2022-01-07 18:22:23
ksmtp/-2022-01-07 18:22:23
kubrick/-2022-01-07 18:22:23
kirigami-gallery/-2022-01-07 18:22:23
kcachegrind/-2022-01-07 18:22:23
kdebugsettings/-2022-01-07 18:22:23
kpimtextedit/-2022-01-07 18:22:23
kbruch/-2022-01-07 18:22:23
kpat/-2022-01-07 18:22:23
kross-interpreters/-2022-01-07 18:22:23
kimagemapeditor/-2022-01-07 18:22:23
kontactinterface/-2022-01-07 18:22:23
ksnakeduel/-2022-01-07 18:22:23
kimap/-2022-01-07 18:22:23
konversation/-2022-01-07 18:22:23
klickety/-2022-01-07 18:22:23
kolf/-2022-01-07 18:22:23
ktp-kded-integration-module/-2022-01-08 00:20:21
ktp-contact-runner/-2022-01-08 00:20:21
konsole/-2022-01-08 00:20:21
kdevelop/-2022-01-08 00:20:21
kwalletmanager/-2022-01-08 00:20:21
ktp-accounts-kcm/-2022-01-08 00:20:21
ktnef/-2022-01-08 00:20:21
k3b/-2022-01-08 00:20:21
ktp-send-file/-2022-01-08 00:20:21
kleopatra/-2022-01-08 00:20:21
kolourpaint/-2022-01-08 00:20:21
kget/-2022-01-08 00:20:21
ktp-desktop-applets/-2022-01-08 00:20:21
ktp-filetransfer-handler/-2022-01-08 00:20:21
kcalutils/-2022-01-08 00:20:21
ktp-approver/-2022-01-08 00:20:21
kdialog/-2022-01-08 00:20:21
kdevelop-php/-2022-01-08 00:20:21
ktp-contact-list/-2022-01-08 00:20:21
kaccounts-providers/-2022-01-08 00:20:21
ktp-common-internals/-2022-01-08 00:20:21
kldap/-2022-01-08 00:20:21
kopete/-2022-01-08 00:20:21
ktp-call-ui/-2022-01-08 00:20:21
ktorrent/-2022-01-08 00:20:21
ktp-auth-handler/-2022-01-08 00:20:21
kdepim-runtime/-2022-01-08 06:19:21
kalarmcal/-2022-01-08 06:19:21
knotes/-2022-01-08 12:18:36
kmailtransport/-2022-01-08 12:18:36
kblocks/-2022-01-08 12:18:36
kalarm/-2022-01-08 12:18:36
kontact/-2022-01-08 12:18:36
kmail-account-wizard/-2022-01-08 12:18:36
knot/-2022-01-08 12:18:36
kgpg/-2022-01-08 12:18:36
kaddressbook/-2022-01-08 12:18:36
kf5-messagelib/-2022-01-08 12:18:36
korganizer/-2022-01-08 18:18:05
kmerresistance/-2022-01-08 18:18:05
kdepim-addons/-2022-01-09 00:20:21
kmail/-2022-01-09 00:20:21
klog/-2022-01-09 06:22:19
krita/-2022-01-09 12:21:37
khronos-opencl-headers/-2022-01-09 18:18:55
ksyntax-highlighting/-2022-01-10 06:23:22
kunitconversion/-2022-01-10 06:23:22
kwallet-kf5/-2022-01-10 06:23:22
kdeclarative/-2022-01-10 06:23:22
kjsembed/-2022-01-10 06:23:22
kcmutils/-2022-01-10 06:23:22
kmediaplayer/-2022-01-10 06:23:22
ki18n/-2022-01-10 06:23:22
kcompletion/-2022-01-10 06:23:22
kdav/-2022-01-10 06:23:22
kimageformats/-2022-01-10 06:23:22
knewstuff/-2022-01-10 06:23:22
kemoticons/-2022-01-10 06:23:22
kdoctools/-2022-01-10 06:23:22
kcoreaddons/-2022-01-10 06:23:22
khtml/-2022-01-10 06:23:22
kbookmarks/-2022-01-10 06:23:22
kplotting/-2022-01-10 06:23:22
knotifyconfig/-2022-01-10 06:23:22
kitemviews/-2022-01-10 06:23:22
kdesu/-2022-01-10 06:23:22
kxmlgui/-2022-01-10 06:23:22
kactivities-kf5/-2022-01-10 06:23:22
kjs/-2022-01-10 06:23:22
kded/-2022-01-10 06:23:22
kidletime/-2022-01-10 06:23:22
kio/-2022-01-10 06:23:22
kdnssd-kf5/-2022-01-10 06:23:22
kquickcharts/-2022-01-10 06:23:22
kservice/-2022-01-10 06:23:22
kwidgetsaddons/-2022-01-10 06:23:22
kdelibs4support/-2022-01-10 06:23:22
kconfigwidgets/-2022-01-10 06:23:22
kapidox/-2022-01-10 06:23:22
kwindowsystem/-2022-01-10 06:23:22
knotifications/-2022-01-10 06:23:22
kdesignerplugin/-2022-01-10 06:23:22
kpty/-2022-01-10 06:23:22
ktexteditor/-2022-01-10 06:23:22
ktextwidgets/-2022-01-10 06:23:22
kactivities-stats/-2022-01-10 06:23:22
kcalcore/-2022-01-10 06:23:22
kpeople/-2022-01-10 06:23:22
kcodecs/-2022-01-10 06:23:22
kiconthemes/-2022-01-10 06:23:22
kpackage/-2022-01-10 06:23:22
kguiaddons/-2022-01-10 06:23:22
kauth/-2022-01-10 06:23:22
kwayland/-2022-01-10 06:23:22
kcontacts/-2022-01-10 06:23:22
kconfig/-2022-01-10 06:23:22
kcrash/-2022-01-10 06:23:22
kglobalaccel/-2022-01-10 06:23:22
kirigami2/-2022-01-10 06:23:22
kitemmodels/-2022-01-10 06:23:22
krunner/-2022-01-10 06:23:22
kjobwidgets/-2022-01-10 06:23:22
kross/-2022-01-10 06:23:22
kxmlrpcclient/-2022-01-10 06:23:22
kinit/-2022-01-10 06:23:22
kfilemetadata-kf5/-2022-01-10 06:23:22
kholidays/-2022-01-10 06:23:22
karchive/-2022-01-10 06:23:22
kdewebkit/-2022-01-10 06:23:22
kdbusaddons/-2022-01-10 06:23:22
kparts/-2022-01-10 06:23:22
kcm-fcitx5/-2022-01-10 12:18:55
ksmbd-tools/-2022-01-12 12:20:33
kitty/-2022-01-13 22:04:57
kawari8/-2022-01-13 22:04:58
kmer/-2022-01-13 23:11:06
kopanocore/-2022-01-13 23:11:13
kgames/-2022-01-14 12:20:14
kdeplasma-addons/-2022-01-14 15:54:59
kdevelop-python/-2022-01-15 00:21:55
kig/-2022-01-15 00:21:55
kubuntu-meta/-2022-01-15 06:22:01
kbtin/-2022-01-15 06:22:01
kodi-pvr-vdr-vnsi/-2022-01-15 15:29:35
kodi-pvr-dvbviewer/-2022-01-15 15:29:35
kodi-pvr-nextpvr/-2022-01-15 15:29:35
kodi-pvr-mediaportal-tvserver/-2022-01-15 15:29:35
kodi-pvr-teleboy/-2022-01-15 15:29:35
kodi-pvr-vbox/-2022-01-15 15:29:35
kodi-pvr-njoy/-2022-01-15 15:29:35
kodi-inputstream-rtmp/-2022-01-15 15:29:39
kodi-audioencoder-wav/-2022-01-15 15:29:39
kodi-audioencoder-flac/-2022-01-15 15:29:39
kodi-audioencoder-vorbis/-2022-01-15 15:29:39
kodi-imagedecoder-heif/-2022-01-15 15:29:39
kodi-imagedecoder-raw/-2022-01-15 15:29:39
kodi-pvr-dvblink/-2022-01-15 15:29:40
kodi-peripheral-xarcade/-2022-01-15 15:29:40
kodi-inputstream-ffmpegdirect/-2022-01-15 15:29:40
kodi-peripheral-joystick/-2022-01-15 15:29:40
kodi-screensaver-asteroids/-2022-01-15 15:48:57
kodi-pvr-vuplus/-2022-01-15 15:48:57
kodi-pvr-waipu/-2022-01-15 15:48:58
kodi-screensaver-pingpong/-2022-01-15 15:48:58
kodi-visualization-fishbmc/-2022-01-15 15:48:58
kodi-vfs-libarchive/-2022-01-15 15:48:58
kodi-screensaver-pyro/-2022-01-15 15:48:58
kodi-vfs-sftp/-2022-01-15 15:48:58
kodi-audioencoder-lame/-2022-01-15 15:48:59
kodi-visualization-waveform/-2022-01-15 15:48:59
kodi-screensaver-shadertoy/-2022-01-15 15:48:59
kodi-visualization-spectrum/-2022-01-15 15:48:59
kodi-visualization-pictureit/-2022-01-15 15:48:59
kodi-audiodecoder-openmpt/-2022-01-15 15:48:59
kodi-pvr-zattoo/-2022-01-15 15:49:00
kodi-inputstream-adaptive/-2022-01-15 15:49:00
kodi-screensaver-greynetic/-2022-01-15 15:49:00
kodi-pvr-wmc/-2022-01-15 15:49:00
kodi-pvr-hts/-2022-01-15 15:49:00
kodi-pvr-argustv/-2022-01-15 15:49:00
kodi-pvr-hdhomerun/-2022-01-15 15:49:00
kodi-screensaver-biogenesis/-2022-01-15 15:49:00
kodi-pvr-iptvsimple/-2022-01-15 15:49:00
kodi-audiodecoder-sidplay/-2022-01-15 15:49:00
kodi-pvr-sledovanitv-cz/-2022-01-15 15:49:01
kodi-pvr-pctv/-2022-01-15 15:49:01
kodi-pvr-filmon/-2022-01-15 15:49:01
kodi-pvr-mythtv/-2022-01-15 15:49:01
kodi-pvr-octonet/-2022-01-15 15:49:01
kodi-pvr-stalker/-2022-01-15 15:49:01
kamailio/-2022-01-15 16:29:05
kactivitymanagerd/-2022-01-15 18:18:58
ksshaskpass/-2022-01-15 18:18:58
kwallet-pam/-2022-01-15 18:18:58
kgamma5/-2022-01-15 18:18:58
kinfocenter/-2022-01-15 18:18:58
kdecoration/-2022-01-15 18:18:58
kwayland-server/-2022-01-15 18:18:58
kmenuedit/-2022-01-15 18:18:58
klayout/-2022-01-15 18:18:58
kwayland-integration/-2022-01-15 18:18:58
kwrited/-2022-01-15 18:18:58
kde-cli-tools/-2022-01-15 18:43:54
khotkeys/-2022-01-15 18:43:54
kicad-footprints/-2022-01-15 23:29:25
kvirc/-2022-01-16 00:20:10
kscreenlocker/-2022-01-16 00:20:10
ksystemstats/-2022-01-16 00:20:10
kscreen/-2022-01-16 00:20:10
kde-gtk-config/-2022-01-16 00:20:10
kicad/-2022-01-16 03:48:51
kdenlive/-2022-01-16 10:19:15
kwin/-2022-01-16 12:21:13
kodi/-2022-01-16 17:29:21